ROCKY HARBOUR CS, NFLD. current weather conditions

sailwx.info

Wind from 030 at 1 knots

Air temperature 24.0° C

Last reported at 2017-Aug-22 16:00 UTC.
Time now 2017-Aug-22 16:58 UTC

Location: N 49°34' W 057°53'.
View on Google Maps.

See reports from other nearby stations

  
Tides and Currents Weather Stations Pressure Air Temp Water Temp Dewpoint Dewpoint Depression Visibility Wind Speed Wind Dir Waves Ship Positions
date/time (UTC)wind fromknots sea level pressurealtimeterstation pressurevisibilityair tempwater tempwave heightnotes
2017-Aug-22 16:00 030 1 24.0
2017-Aug-22 15:00 030 2 21.0
2017-Aug-22 14:00 350 0 19.0
2017-Aug-22 13:00 180 1 20.0
2017-Aug-22 12:00 050 1 15.0
2017-Aug-22 11:00 060 0 14.0
2017-Aug-22 10:00 040 2 13.0
2017-Aug-22 09:00 030 2 14.0
2017-Aug-22 08:00 180 2 15.0
2017-Aug-22 07:00 060 1 14.0
2017-Aug-22 06:00 020 0 15.0
2017-Aug-22 05:00 140 4 16.0
2017-Aug-22 04:00 140 2 16.0
2017-Aug-22 03:00 130 5 16.0
2017-Aug-22 02:00 120 2 15.0
2017-Aug-22 01:00 080 2 13.0
2017-Aug-22 00:00 030 2 13.0
2017-Aug-21 23:00 250 2 15.0
2017-Aug-21 22:00 290 0 18.0
2017-Aug-21 21:00 230 5 20.0
2017-Aug-21 20:00 250 6 21.0
2017-Aug-21 19:00 250 8 gusting 14 19.0
2017-Aug-21 18:00 250 12 gusting 20 20.0
2017-Aug-21 17:00 250 13 gusting 19 20.0
2017-Aug-21 16:00 250 8 gusting 15 21.0
2017-Aug-21 15:00 250 11 gusting 15 20.0
2017-Aug-21 14:00 260 8 gusting 14 17.0
2017-Aug-21 13:00 250 8 gusting 17 15.0
2017-Aug-21 12:00 250 13 gusting 20 13.0
2017-Aug-21 11:00 230 6 13.0
2017-Aug-21 10:00 250 12 gusting 20 12.0
2017-Aug-21 09:00 220 7 13.0
2017-Aug-21 08:00 210 5 13.0
2017-Aug-21 07:00 220 4 13.0
2017-Aug-21 06:00 210 5 13.0
2017-Aug-21 05:00 220 7 gusting 14 14.0
2017-Aug-21 04:00 210 4 14.0
2017-Aug-21 03:00 230 8 gusting 17 15.0
2017-Aug-21 02:00 160 0 15.0
2017-Aug-21 01:00 150 2 16.0
2017-Aug-21 00:00 160 5 16.0
2017-Aug-20 23:00 140 6 16.0
2017-Aug-20 22:00 150 7 gusting 14 17.0
2017-Aug-20 21:00 160 7 gusting 15 18.0
2017-Aug-20 20:00 150 8 gusting 18 18.0
2017-Aug-20 19:00 150 11 gusting 18 17.0
2017-Aug-20 18:00 140 8 gusting 19 18.0
2017-Aug-20 17:00 150 11 gusting 20 15.0
2017-Aug-20 16:00 140 7 gusting 18 15.0